Weather History for Bainbridge, GA

Change the Weather History Date:

Thursday, September 5, 2013

  Actual Average (KMAI) Record (KMAI)
Temperature  
Mean Temperature 84 °F 80 °F  
Max Temperature 96 °F 90 °F 97 °F (2010)
Min Temperature 73 °F 70 °F 64 °F (1997)
Degree Days  
Heating Degree Days 0    
Month to date heating degree days  
Since 1 July heating degree days  
Cooling Degree Days 20    
Month to date cooling degree days  
Year to date cooling degree days  
Growing Degree Days 34 (Base 50)    
Moisture  
Dew Point 76 °F    
Average Humidity 77    
Maximum Humidity 100    
Minimum Humidity 47    
Precipitation  
Precipitation 0.00 in 0.12 in 0.55 in (2011)
Month to date precipitation 0.65  
Year to date precipitation 38.98  
Sea Level Pressure  
Sea Level Pressure 30.07 in    
Wind  
Wind Speed 1 mph (West)    
Max Wind Speed 9 mph    
Max Gust Speed -    
Visibility 9 miles    
Events Thunderstorm    
T = Trace of Precipitation, MM = Missing Value Source: NWS Daily Summary

Daily Weather History Graph

Daily Weather History Graph

Search for Another Location

Airport:

Trip Planner

Search our weather history database for the weather conditions in past years. The results will help you decide how hot, cold, wet, or windy it might be!

Date:

Astronomy

Sep. 05, 2013 Rise Set
Actual Time 7:17 AM EDT 7:56 PM EDT
Civil Twilight 6:52 AM EDT 8:20 PM EDT
Nautical Twilight 6:23 AM EDT 8:49 PM EDT
Astronomical Twilight 5:54 AM EDT 9:18 PM EDT
Moon 7:23 AM EDT (9/5) 7:54 PM EDT (9/5)
Length of Visible Light 13h 28m
Length of Day
12h 39m
New Moon, 0% of the Moon is Illuminated
Sep 5
New Moon
Sep 12
First Quarter
Sep 19
Full
Sep 26
Last Quarter
Oct 4
New

Hourly Weather History & Observations

Time (EDT) Temp. Heat Index Dew Point Humidity Pressure Visibility Wind Dir Wind Speed Gust Speed Precip Events Conditions
12:15 AM 78.8 °F - 77.0 °F 94% 30.08 in 10.0 mi Calm Calm - N/A   Clear
12:35 AM 78.8 °F - 77.0 °F 94% 30.08 in 10.0 mi Calm Calm - N/A   Clear
12:55 AM 78.8 °F - 77.0 °F 94% 30.08 in 10.0 mi Calm Calm - N/A   Clear
1:15 AM 78.8 °F - 77.0 °F 94% 30.07 in 10.0 mi Calm Calm - N/A   Clear
1:35 AM 78.8 °F - 77.0 °F 94% 30.06 in 10.0 mi Calm Calm - N/A   Clear
1:55 AM 78.8 °F - 77.0 °F 94% 30.07 in 10.0 mi Calm Calm - N/A   Clear
2:15 AM 77.0 °F - 73.4 °F 89% 30.07 in 7.0 mi Calm Calm - N/A   Clear
2:35 AM 78.8 °F - 77.0 °F 94% 30.06 in 10.0 mi Calm Calm - N/A   Clear
2:55 AM 78.8 °F - 77.0 °F 94% 30.07 in 10.0 mi Calm Calm - N/A   Clear
3:15 AM 77.0 °F - 73.4 °F 89% 30.06 in 10.0 mi Calm Calm - N/A   Clear
3:35 AM 77.0 °F - 73.4 °F 89% 30.06 in 10.0 mi Calm Calm - N/A   Clear
3:55 AM 78.8 °F - 77.0 °F 94% 30.05 in 10.0 mi Calm Calm - N/A   Clear
4:15 AM 78.8 °F - 77.0 °F 94% 30.05 in 10.0 mi Calm Calm - N/A   Clear
4:35 AM 75.2 °F - 73.4 °F 94% 30.05 in 7.0 mi Calm Calm - N/A   Clear
4:55 AM 77.0 °F - 73.4 °F 89% 30.05 in 7.0 mi Calm Calm - N/A   Clear
5:15 AM 75.2 °F - 73.4 °F 94% 30.05 in 5.0 mi South 3.5 mph - N/A   Clear
5:35 AM 75.2 °F - 73.4 °F 94% 30.05 in 5.0 mi Calm Calm - N/A   Clear
5:55 AM 73.4 °F - 73.4 °F 100% 30.06 in 5.0 mi Calm Calm - N/A   Clear
6:15 AM 75.2 °F - 73.4 °F 94% 30.07 in 5.0 mi Calm Calm - N/A   Clear
6:35 AM 73.4 °F - 73.4 °F 100% 30.07 in 5.0 mi Calm Calm - N/A   Clear
6:55 AM 73.4 °F - 73.4 °F 100% 30.08 in 5.0 mi Calm Calm - N/A   Clear
7:15 AM 73.4 °F - 71.6 °F 94% 30.08 in 4.0 mi Calm Calm - N/A   Clear
7:35 AM 73.4 °F - 73.4 °F 100% 30.08 in 4.0 mi Calm Calm - N/A   Clear
7:55 AM 77.0 °F - 75.2 °F 94% 30.09 in 4.0 mi Calm Calm - N/A   Clear
8:15 AM 78.8 °F - 77.0 °F 94% 30.10 in 5.0 mi Calm Calm - N/A   Clear
8:35 AM 78.8 °F - 77.0 °F 94% 30.10 in 7.0 mi Calm Calm - N/A   Clear
8:55 AM 80.6 °F 88.1 °F 78.8 °F 94% 30.11 in 7.0 mi Calm Calm - N/A   Clear
9:15 AM 80.6 °F 87.1 °F 77.0 °F 89% 30.12 in 10.0 mi Calm Calm - N/A   Scattered Clouds
9:35 AM 82.4 °F 92.4 °F 78.8 °F 89% 30.12 in 10.0 mi Calm Calm - N/A   Scattered Clouds
9:55 AM 84.2 °F 94.1 °F 77.0 °F 79% 30.12 in 10.0 mi Calm Calm - N/A   Clear
10:15 AM 86.0 °F 96.9 °F 77.0 °F 74% 30.12 in 10.0 mi Calm Calm - N/A   Clear
10:35 AM 86.0 °F 96.9 °F 77.0 °F 74% 30.12 in 10.0 mi Calm Calm - N/A   Clear
10:55 AM 87.8 °F 99.7 °F 77.0 °F 70% 30.13 in 10.0 mi Calm Calm - N/A   Clear
11:15 AM 87.8 °F 99.7 °F 77.0 °F 70% 30.13 in 10.0 mi Calm Calm - N/A   Clear
11:35 AM 89.6 °F 102.2 °F 77.0 °F 66% 30.12 in 10.0 mi SSE 3.5 mph - N/A   Clear
11:55 AM 89.6 °F 102.2 °F 77.0 °F 66% 30.12 in 10.0 mi ESE 4.6 mph - N/A   Clear
12:15 PM 91.4 °F 105.1 °F 77.0 °F 63% 30.11 in 10.0 mi West 3.5 mph - N/A   Scattered Clouds
12:35 PM 95.0 °F 109.7 °F 77.0 °F 56% 30.11 in 10.0 mi SSW 3.5 mph - N/A   Clear
12:55 PM 95.0 °F 109.7 °F 77.0 °F 56% 30.11 in 10.0 mi WSW 3.5 mph - N/A   Scattered Clouds
1:15 PM 89.6 °F 99.8 °F 75.2 °F 62% 30.11 in 10.0 mi Calm Calm - N/A   Scattered Clouds
1:35 PM 95.0 °F 107.4 °F 75.2 °F 53% 30.10 in 10.0 mi WSW 4.6 mph - N/A   Scattered Clouds
1:55 PM 95.0 °F 104.5 °F 73.4 °F 49% 30.09 in 10.0 mi WSW 9.2 mph - N/A   Scattered Clouds
2:15 PM 95.0 °F 104.5 °F 73.4 °F 49% 30.08 in 10.0 mi West 4.6 mph - N/A   Clear
2:35 PM 95.0 °F 104.5 °F 73.4 °F 49% 30.07 in 10.0 mi West 4.6 mph - N/A   Scattered Clouds
2:55 PM 95.0 °F 103.2 °F 71.6 °F 47% 30.06 in 10.0 mi Calm Calm - N/A   Scattered Clouds
3:15 PM 96.8 °F 107.3 °F 73.4 °F 47% 30.06 in 10.0 mi WSW 5.8 mph - N/A   Clear
3:35 PM 95.0 °F 103.2 °F 71.6 °F 47% 30.05 in 10.0 mi WSW 5.8 mph - N/A   Clear
3:55 PM 95.0 °F 104.5 °F 73.4 °F 49% 30.04 in 10.0 mi West 5.8 mph - N/A   Clear
4:15 PM 95.0 °F 104.5 °F 73.4 °F 49% 30.04 in 10.0 mi West 6.9 mph - N/A   Clear
4:35 PM 95.0 °F 104.5 °F 73.4 °F 49% 30.03 in 10.0 mi WNW 9.2 mph - N/A   Clear
4:55 PM 95.0 °F 107.4 °F 75.2 °F 53% 30.03 in 10.0 mi NNW 6.9 mph - N/A   Clear
5:15 PM 95.0 °F 104.5 °F 73.4 °F 49% 30.03 in 10.0 mi WNW 6.9 mph - N/A   Clear
5:35 PM 95.0 °F 104.5 °F 73.4 °F 49% 30.03 in 10.0 mi NW 5.8 mph - N/A   Clear
5:55 PM 95.0 °F 107.4 °F 75.2 °F 53% 30.03 in 10.0 mi NW 4.6 mph - N/A   Clear
6:15 PM 95.0 °F 109.7 °F 77.0 °F 56% 30.03 in 10.0 mi WNW 6.9 mph - N/A   Clear
6:35 PM 95.0 °F 112.2 °F 78.8 °F 59% 30.03 in 10.0 mi WNW 6.9 mph - N/A   Clear
6:55 PM 91.4 °F 105.1 °F 77.0 °F 63% 30.04 in 10.0 mi NW 5.8 mph - N/A   Clear
7:15 PM 91.4 °F 105.1 °F 77.0 °F 63% 30.04 in 10.0 mi NW 5.8 mph - N/A   Clear
7:35 PM 87.8 °F 99.7 °F 77.0 °F 70% 30.04 in 10.0 mi NW 3.5 mph - N/A   Clear
7:55 PM 87.8 °F 99.7 °F 77.0 °F 70% 30.05 in 10.0 mi NNW 4.6 mph - N/A   Clear
8:15 PM 87.8 °F 99.7 °F 77.0 °F 70% 30.05 in 10.0 mi Calm Calm - N/A   Clear
8:35 PM 84.2 °F 96.1 °F 78.8 °F 84% 30.05 in 10.0 mi Calm Calm - N/A Thunderstorm Clear
8:55 PM 84.2 °F 96.1 °F 78.8 °F 84% 30.05 in 10.0 mi Calm Calm - N/A   Clear
9:15 PM 84.2 °F 96.1 °F 78.8 °F 84% 30.05 in 10.0 mi Calm Calm - N/A   Clear
9:35 PM 84.2 °F 94.1 °F 77.0 °F 79% 30.06 in 10.0 mi North 8.1 mph - N/A   Clear
9:55 PM 84.2 °F 94.1 °F 77.0 °F 79% 30.08 in 10.0 mi North 5.8 mph - N/A   Clear
10:15 PM 84.2 °F 94.1 °F 77.0 °F 79% 30.08 in 10.0 mi Calm Calm - N/A   Clear
10:35 PM 82.4 °F 89.5 °F 75.2 °F 79% 30.09 in 10.0 mi Calm Calm - N/A   Clear
10:55 PM 80.6 °F 87.1 °F 77.0 °F 89% 30.08 in 10.0 mi SSE 4.6 mph - N/A   Clear
11:15 PM 80.6 °F 87.1 °F 77.0 °F 89% 30.08 in 10.0 mi Calm Calm - N/A   Clear
11:35 PM 80.6 °F 87.1 °F 77.0 °F 89% 30.08 in 10.0 mi Calm Calm - N/A   Clear
11:55 PM 80.6 °F 87.1 °F 77.0 °F 89% 30.08 in 10.0 mi Calm Calm - N/A   Clear